StationID,Date,MaxTemp,MinTemp,Precipitation,Snowfall,SnowDepth
"USR0000ACHL","1997-06-20",71.96,53.96,,,
"USR0000ACHL","1997-06-21",69.98,48.02,,,
"USR0000ACHL","1997-06-22",80.96,46.94,,,
"USR0000ACHL","1997-06-23",71.96,44.96,,,
"USR0000ACHL","1997-06-24",77.00,42.08,,,
"USR0000ACHL","1997-06-25",86.00,50.00,,,
"USR0000ACHL","1997-06-26",80.06,46.04,,,
"USR0000ACHL","1997-06-27",78.98,50.00,,,
"USR0000ACHL","1997-06-28",75.92,46.94,,,
"USR0000ACHL","1997-06-29",82.04,39.02,,,
"USR0000ACHL","1997-06-30",84.92,48.02,,,
"USR0000ACHL","1997-07-01",89.06,42.08,,,
"USR0000ACHL","1997-07-02",84.02,53.06,,,
"USR0000ACHL","1997-07-03",77.00,50.00,,,
"USR0000ACHL","1997-07-04",78.08,51.98,,,
"USR0000ACHL","1997-07-05",82.04,48.92,,,
"USR0000ACHL","1997-07-06",82.94,41.00,,,
"USR0000ACHL","1997-07-07",71.06,44.96,,,
"USR0000ACHL","1997-07-08",77.00,39.92,,,
"USR0000ACHL","1997-07-09",75.02,44.96,,,
"USR0000ACHL","1997-07-10",73.94,48.92,,,
"USR0000ACHL","1997-07-11",75.02,46.04,,,
"USR0000ACHL","1997-07-12",71.96,53.06,,,
"USR0000ACHL","1997-07-13",80.06,48.02,,,
"USR0000ACHL","1997-07-14",69.98,46.04,,,
"USR0000ACHL","1997-07-15",75.92,42.08,,,
"USR0000ACHL","1997-07-16",69.98,48.92,,,
"USR0000ACHL","1997-07-17",78.98,44.96,,,
"USR0000ACHL","1997-07-18",82.94,46.04,,,
"USR0000ACHL","1997-07-19",77.00,53.96,,,
"USR0000ACHL","1997-07-20",77.00,46.04,,,
"USR0000ACHL","1997-07-21",77.00,51.98,,,
"USR0000ACHL","1997-07-22",64.94,48.02,,,
"USR0000ACHL","1997-07-23",82.04,42.08,,,
"USR0000ACHL","1997-07-24",82.04,50.00,,,
"USR0000ACHL","1997-07-25",77.00,42.08,,,
"USR0000ACHL","1997-07-26",71.96,57.02,,,
"USR0000ACHL","1997-07-27",69.08,55.04,,,
"USR0000ACHL","1997-07-28",64.94,41.00,,,
"USR0000ACHL","1997-07-29",69.98,39.02,,,
"USR0000ACHL","1997-07-30",71.96,39.02,,,
"USR0000ACHL","1997-07-31",78.98,42.08,,,
"USR0000ACHL","1997-08-01",80.06,51.08,,,
"USR0000ACHL","1997-08-02",80.06,46.04,,,
"USR0000ACHL","1997-08-03",80.06,46.94,,,
"USR0000ACHL","1997-08-04",77.00,55.94,,,
"USR0000ACHL","1997-08-05",87.98,51.08,,,
"USR0000ACHL","1997-08-06",75.02,55.94,,,
"USR0000ACHL","1997-08-07",73.94,48.92,,,
"USR0000ACHL","1997-08-08",71.96,59.00,,,
"USR0000ACHL","1997-08-09",78.08,46.04,,,
"USR0000ACHL","1997-08-10",77.00,46.94,,,
"USR0000ACHL","1997-08-11",78.08,46.04,,,
"USR0000ACHL","1997-08-12",73.94,53.96,,,
"USR0000ACHL","1997-08-13",66.02,53.96,,,
"USR0000ACHL","1997-08-14",69.98,53.06,,,
"USR0000ACHL","1997-08-15",73.94,46.94,,,
"USR0000ACHL","1997-08-16",62.96,44.96,,,
"USR0000ACHL","1997-08-17",55.04,44.06,,,
"USR0000ACHL","1997-08-18",55.94,28.94,,,
"USR0000ACHL","1997-08-19",62.06,21.92,,,
"USR0000ACHL","1997-08-20",64.94,37.94,,,
"USR0000ACHL","1997-08-21",68.00,33.98,,,
"USR0000ACHL","1997-08-22",73.04,28.04,,,
"USR0000ACHL","1997-08-23",73.94,42.98,,,
"USR0000ACHL","1997-08-24",71.96,35.96,,,
"USR0000ACHL","1997-08-25",60.98,32.00,,,
"USR0000ACHL","1997-08-26",68.00,50.00,,,
"USR0000ACHL","1997-08-27",60.98,42.98,,,
"USR0000ACHL","1997-08-28",59.00,39.92,,,
"USR0000ACHL","1997-08-29",64.94,33.98,,,
"USR0000ACHL","1997-08-30",64.94,39.92,,,
"USR0000ACHL","1997-08-31",64.94,42.98,,,
"USR0000ACHL","1997-09-01",55.04,41.00,,,
"USR0000ACHL","1997-09-04",60.98,46.04,,,
"USR0000ACHL","1997-09-05",62.96,30.02,,,
"USR0000ACHL","1997-09-06",66.92,32.00,,,
"USR0000ACHL","1997-09-07",64.94,35.06,,,
"USR0000ACHL","1997-09-08",66.92,44.06,,,
"USR0000ACHL","1997-09-09",60.98,37.94,,,
"USR0000ACHL","1997-09-10",68.00,28.94,,,
"USR0000ACHL","1997-09-11",62.96,37.94,,,
"USR0000ACHL","1997-09-12",60.08,37.04,,,
"USR0000ACHL","1997-09-13",57.02,30.92,,,
"USR0000ACHL","1997-09-14",60.98,28.94,,,
"USR0000ACHL","1997-09-15",62.96,32.00,,,
"USR0000ACHL","1997-09-16",60.08,32.00,,,
"USR0000ACHL","1997-09-17",60.98,28.94,,,
"USR0000ACHL","1997-09-18",60.08,37.04,,,
"USR0000ACHL","1997-09-19",53.06,33.08,,,
"USR0000ACHL","1997-09-20",57.92,28.94,,,
"USR0000ACHL","1997-09-21",57.92,26.96,,,
"USR0000ACHL","1997-09-22",48.92,41.00,,,
"USR0000ACHL","1997-09-23",62.06,41.00,,,
"USR0000ACHL","1997-09-24",66.02,30.92,,,
"USR0000ACHL","1997-09-25",50.00,28.94,,,
"USR0000ACHL","1997-09-26",62.06,33.98,,,
"USR0000ACHL","1997-09-27",50.00,28.04,,,
"USR0000ACHL","1997-09-28",44.96,28.94,,,
"USR0000ACHL","1997-09-29",48.92,23.00,,,
"USR0000ACHL","1997-09-30",48.02,15.98,,,
"USR0000ACHL","1997-10-01",48.02,30.92,,,
"USR0000ACHL","1997-10-02",39.02,28.94,,,
"USR0000ACHL","1997-10-03",42.08,26.96,,,
"USR0000ACHL","1997-10-04",42.98,30.02,,,
"USR0000ACHL","1997-10-05",42.08,28.94,,,
"USR0000ACHL","1997-10-06",35.06,24.08,,,
"USR0000ACHL","1997-10-07",32.00,5.00,,,
"USR0000ACHL","1997-10-08",32.00,5.00,,,
"USR0000ACHL","1997-10-09",32.00,15.08,,,
"USR0000ACHL","1997-10-10",32.00,8.06,,,
"USR0000ACHL","1997-10-11",24.98,6.98,,,
"USR0000ACHL","1997-10-12",23.00,14.00,,,
"USR0000ACHL","1997-10-13",19.94,6.08,,,
"USR0000ACHL","1997-10-14",24.08,-0.94,,,
"USR0000ACHL","1997-10-15",19.04,-5.08,,,
"USR0000ACHL","1997-10-16",10.94,-13.00,,,
"USR0000ACHL","1997-10-17",17.96,1.94,,,
"USR0000ACHL","1997-10-18",17.96,-7.06,,,
"USR0000ACHL","1997-10-19",14.00,-14.98,,,
"USR0000ACHL","1997-10-20",19.04,3.92,,,
"USR0000ACHL","1997-10-21",21.02,6.98,,,
"USR0000ACHL","1997-10-22",17.96,6.08,,,
"USR0000ACHL","1997-10-23",19.04,10.94,,,
"USR0000ACHL","1997-10-24",10.94,5.00,,,
"USR0000ACHL","1997-10-25",5.00,-0.04,,,
"USR0000ACHL","1997-10-26",24.08,5.00,,,
"USR0000ACHL","1997-10-27",19.94,1.94,,,
"USR0000ACHL","1997-10-28",14.00,-20.02,,,
"USR0000ACHL","1997-10-29",15.08,-18.94,,,
"USR0000ACHL","1997-10-30",14.00,1.94,,,
"USR0000ACHL","1997-10-31",3.92,-20.02,,,
"USR0000ACHL","1997-11-01",3.02,-18.94,,,
"USR0000ACHL","1997-11-02",14.00,-16.96,,,
"USR0000ACHL","1997-11-03",17.96,-20.02,,,
"USR0000ACHL","1997-11-04",12.02,-5.98,,,
"USR0000ACHL","1997-11-05",14.00,-5.98,,,
"USR0000ACHL","1997-11-06",24.98,-2.92,,,
"USR0000ACHL","1997-11-07",15.08,-2.92,,,
"USR0000ACHL","1997-11-08",21.92,6.98,,,
"USR0000ACHL","1997-11-09",28.04,17.96,,,
"USR0000ACHL","1997-11-10",37.94,24.98,,,
"USR0000ACHL","1997-11-11",39.02,3.02,,,
"USR0000ACHL","1997-11-12",10.04,-9.04,,,
"USR0000ACHL","1997-11-13",8.96,-9.94,,,
"USR0000ACHL","1997-11-14",19.94,-16.06,,,
"USR0000ACHL","1997-11-15",1.04,-23.98,,,
"USR0000ACHL","1997-11-16",-16.06,-27.04,,,
"USR0000ACHL","1997-11-17",-14.08,-27.04,,,
"USR0000ACHL","1997-11-18",-0.94,-22.00,,,
"USR0000ACHL","1997-11-19",1.94,-7.96,,,
"USR0000ACHL","1997-11-20",5.00,-11.02,,,
"USR0000ACHL","1997-11-21",-2.02,-20.02,,,
"USR0000ACHL","1997-11-22",3.02,-4.00,,,
"USR0000ACHL","1997-11-23",-0.04,-9.04,,,
"USR0000ACHL","1997-11-24",-2.02,-18.94,,,
"USR0000ACHL","1997-11-25",-7.96,-31.00,,,
"USR0000ACHL","1997-11-26",-7.06,-32.98,,,
"USR0000ACHL","1997-11-27",3.92,-2.92,,,
"USR0000ACHL","1997-11-28",3.02,-5.98,,,
"USR0000ACHL","1997-11-29",1.94,-20.02,,,
"USR0000ACHL","1997-11-30",3.92,-22.00,,,
"USR0000ACHL","1997-12-01",8.06,-2.02,,,
"USR0000ACHL","1997-12-02",5.00,-20.92,,,
"USR0000ACHL","1997-12-03",-2.92,-23.08,,,
"USR0000ACHL","1997-12-04",1.94,-11.92,,,
"USR0000ACHL","1997-12-05",10.94,-5.98,,,
"USR0000ACHL","1997-12-06",-4.00,-18.04,,,
"USR0000ACHL","1997-12-07",1.94,-16.96,,,
"USR0000ACHL","1997-12-08",5.00,-7.06,,,
"USR0000ACHL","1997-12-09",-5.08,-16.96,,,
"USR0000ACHL","1997-12-10",12.92,-9.94,,,
"USR0000ACHL","1997-12-11",14.00,-5.98,,,
"USR0000ACHL","1997-12-12",3.92,-5.98,,,
"USR0000ACHL","1997-12-13",6.08,-4.00,,,
"USR0000ACHL","1997-12-14",-5.08,-36.04,,,
"USR0000ACHL","1997-12-15",-9.04,-31.00,,,
"USR0000ACHL","1997-12-16",-2.92,-7.96,,,
"USR0000ACHL","1997-12-17",-5.98,-13.00,,,
"USR0000ACHL","1997-12-18",-5.98,-11.92,,,
"USR0000ACHL","1997-12-19",-0.04,-5.08,,,
"USR0000ACHL","1997-12-20",-2.02,-25.06,,,
"USR0000ACHL","1997-12-21",-9.94,-34.96,,,
"USR0000ACHL","1997-12-22",-5.98,-9.04,,,
"USR0000ACHL","1997-12-23",-5.98,-9.94,,,
"USR0000ACHL","1997-12-24",-2.92,-11.92,,,
"USR0000ACHL","1997-12-25",-2.02,-22.00,,,
"USR0000ACHL","1997-12-26",-7.96,-20.92,,,
"USR0000ACHL","1997-12-27",-23.98,-32.08,,,
"USR0000ACHL","1997-12-28",-7.96,-25.96,,,
"USR0000ACHL","1997-12-29",-2.02,-14.98,,,
"USR0000ACHL","1997-12-30",-9.04,-38.92,,,
"USR0000ACHL","1997-12-31",-36.04,-41.98,,,
"USR0000ACHL","1998-01-01",-27.94,-40.00,,,
"USR0000ACHL","1998-01-02",-29.02,-41.98,,,
"USR0000ACHL","1998-01-03",-41.98,-50.98,,,
"USR0000ACHL","1998-01-04",-43.96,-50.08,,,
"USR0000ACHL","1998-01-05",-38.02,-49.00,,,
"USR0000ACHL","1998-01-06",-40.00,-47.02,,,
"USR0000ACHL","1998-01-07",-40.00,-45.94,,,
"USR0000ACHL","1998-01-08",-38.02,-41.98,,,
"USR0000ACHL","1998-01-09",-9.04,-36.04,,,
"USR0000ACHL","1998-01-10",-0.94,-9.04,,,
"USR0000ACHL","1998-01-11",-0.04,-5.98,,,
"USR0000ACHL","1998-01-12",1.04,-36.94,,,
"USR0000ACHL","1998-01-13",-14.98,-38.92,,,
"USR0000ACHL","1998-01-14",-20.02,-22.00,,,
"USR0000ACHL","1998-01-15",-14.98,-23.08,,,
"USR0000ACHL","1998-01-16",-23.08,-32.98,,,
"USR0000ACHL","1998-01-17",-9.04,-34.06,,,
"USR0000ACHL","1998-01-18",-9.04,-18.04,,,
"USR0000ACHL","1998-01-19",-9.94,-16.96,,,
"USR0000ACHL","1998-01-20",-11.92,-31.00,,,
"USR0000ACHL","1998-01-21",-9.04,-31.00,,,
"USR0000ACHL","1998-01-22",-7.06,-9.04,,,
"USR0000ACHL","1998-01-23",-4.00,-7.96,,,
"USR0000ACHL","1998-01-24",-7.96,-9.04,,,
"USR0000ACHL","1998-01-25",-7.06,-16.96,,,
"USR0000ACHL","1998-01-26",-0.94,-9.04,,,
"USR0000ACHL","1998-01-27",1.94,-14.08,,,
"USR0000ACHL","1998-01-28",-4.00,-18.94,,,
"USR0000ACHL","1998-01-29",3.92,-18.94,,,
"USR0000ACHL","1998-01-30",6.98,-13.00,,,
"USR0000ACHL","1998-01-31",1.94,-14.08,,,
"USR0000ACHL","1998-02-01",6.08,-11.92,,,
"USR0000ACHL","1998-02-02",14.00,-16.06,,,
"USR0000ACHL","1998-02-03",15.98,5.00,,,
"USR0000ACHL","1998-02-04",8.06,-14.98,,,
"USR0000ACHL","1998-02-05",-2.02,-22.00,,,
"USR0000ACHL","1998-02-06",-0.94,-23.08,,,
"USR0000ACHL","1998-02-07",8.96,-25.96,,,
"USR0000ACHL","1998-02-08",3.92,-7.96,,,
"USR0000ACHL","1998-02-09",-2.02,-9.94,,,
"USR0000ACHL","1998-02-10",-0.04,-13.00,,,
"USR0000ACHL","1998-02-11",6.98,-9.04,,,
"USR0000ACHL","1998-02-12",6.08,-18.94,,,
"USR0000ACHL","1998-02-13",1.94,-2.92,,,
"USR0000ACHL","1998-02-14",-0.94,-11.92,,,
"USR0000ACHL","1998-02-15",-4.00,-13.00,,,
"USR0000ACHL","1998-02-16",-7.06,-16.96,,,
"USR0000ACHL","1998-02-17",-9.94,-20.02,,,
"USR0000ACHL","1998-02-18",-2.02,-16.96,,,
"USR0000ACHL","1998-02-19",3.92,-7.96,,,
"USR0000ACHL","1998-02-20",-0.94,-16.06,,,
"USR0000ACHL","1998-02-21",8.06,-22.00,,,
"USR0000ACHL","1998-02-22",8.06,-18.94,,,
"USR0000ACHL","1998-02-23",17.06,-20.02,,,
"USR0000ACHL","1998-02-24",19.94,-14.98,,,
"USR0000ACHL","1998-02-25",14.00,-18.04,,,
"USR0000ACHL","1998-02-26",12.02,-20.02,,,
"USR0000ACHL","1998-02-27",17.96,-5.08,,,
"USR0000ACHL","1998-02-28",15.98,-0.04,,,
"USR0000ACHL","1998-03-01",17.06,6.98,,,
"USR0000ACHL","1998-03-02",12.92,-0.04,,,
"USR0000ACHL","1998-03-03",10.94,-23.98,,,
"USR0000ACHL","1998-03-04",12.92,-25.96,,,
"USR0000ACHL","1998-03-05",12.02,-27.94,,,
"USR0000ACHL","1998-03-06",12.02,-9.94,,,
"USR0000ACHL","1998-03-07",14.00,-13.00,,,
"USR0000ACHL","1998-03-08",17.96,-25.06,,,
"USR0000ACHL","1998-03-09",21.92,-25.06,,,
"USR0000ACHL","1998-03-10",19.94,-23.98,,,
"USR0000ACHL","1998-03-11",21.02,-23.08,,,
"USR0000ACHL","1998-03-12",24.98,-25.96,,,
"USR0000ACHL","1998-03-13",26.06,-20.02,,,
"USR0000ACHL","1998-03-14",33.08,-13.00,,,
"USR0000ACHL","1998-03-15",32.00,-9.94,,,
"USR0000ACHL","1998-03-16",37.04,-9.04,,,
"USR0000ACHL","1998-03-17",37.94,3.02,,,
"USR0000ACHL","1998-03-18",51.08,10.94,,,
"USR0000ACHL","1998-03-19",48.92,6.08,,,
"USR0000ACHL","1998-03-20",51.98,6.98,,,
"USR0000ACHL","1998-03-21",48.92,10.04,,,
"USR0000ACHL","1998-03-22",48.02,8.06,,,
"USR0000ACHL","1998-03-23",48.02,8.96,,,
"USR0000ACHL","1998-03-24",37.94,12.92,,,
"USR0000ACHL","1998-03-25",42.08,15.98,,,
"USR0000ACHL","1998-03-26",28.04,10.04,,,
"USR0000ACHL","1998-03-27",33.08,12.02,,,
"USR0000ACHL","1998-03-28",30.02,-4.00,,,
"USR0000ACHL","1998-03-29",33.98,12.02,,,
"USR0000ACHL","1998-03-30",21.02,-5.98,,,
"USR0000ACHL","1998-03-31",30.92,-16.06,,,
"USR0000ACHL","1998-04-01",39.02,3.02,,,
"USR0000ACHL","1998-04-02",48.02,-5.98,,,
"USR0000ACHL","1998-04-03",50.00,5.00,,,
"USR0000ACHL","1998-04-04",53.06,23.00,,,
"USR0000ACHL","1998-04-05",53.96,17.96,,,
"USR0000ACHL","1998-04-06",53.96,19.94,,,
"USR0000ACHL","1998-04-07",57.92,24.98,,,
"USR0000ACHL","1998-04-08",51.08,33.08,,,
"USR0000ACHL","1998-04-09",50.00,24.98,,,
"USR0000ACHL","1998-04-10",53.96,19.94,,,
"USR0000ACHL","1998-04-11",48.92,21.92,,,
"USR0000ACHL","1998-04-12",50.00,26.06,,,
"USR0000ACHL","1998-04-13",50.00,24.98,,,
"USR0000ACHL","1998-04-14",55.94,23.00,,,
"USR0000ACHL","1998-04-15",57.92,32.00,,,
"USR0000ACHL","1998-04-16",51.98,30.92,,,
"USR0000ACHL","1998-04-17",62.96,26.96,,,
"USR0000ACHL","1998-04-18",60.08,28.94,,,
"USR0000ACHL","1998-04-19",64.04,24.98,,,
"USR0000ACHL","1998-04-20",57.92,30.02,,,
"USR0000ACHL","1998-04-21",57.92,26.06,,,
"USR0000ACHL","1998-04-22",55.04,21.02,,,
"USR0000ACHL","1998-04-23",55.04,28.94,,,
"USR0000ACHL","1998-04-24",41.00,23.00,,,
"USR0000ACHL","1998-04-25",37.94,14.00,,,
"USR0000ACHL","1998-04-26",35.06,8.96,,,
"USR0000ACHL","1998-04-27",55.04,19.94,,,
"USR0000ACHL","1998-04-28",48.92,28.94,,,
"USR0000ACHL","1998-04-29",42.98,28.94,,,
"USR0000ACHL","1998-04-30",46.94,24.98,,,
"USR0000ACHL","1998-05-01",51.98,24.98,,,
"USR0000ACHL","1998-05-02",48.92,26.06,,,
"USR0000ACHL","1998-05-03",46.94,30.02,,,
"USR0000ACHL","1998-05-04",48.02,26.96,,,
"USR0000ACHL","1998-05-05",55.94,26.06,,,
"USR0000ACHL","1998-05-06",60.08,32.00,,,
"USR0000ACHL","1998-05-07",55.04,28.94,,,
"USR0000ACHL","1998-05-08",60.98,28.94,,,
"USR0000ACHL","1998-05-09",64.04,35.06,,,
"USR0000ACHL","1998-05-10",60.08,35.06,,,
"USR0000ACHL","1998-05-11",55.94,32.00,,,
"USR0000ACHL","1998-05-12",55.04,24.98,,,
"USR0000ACHL","1998-05-13",60.98,19.04,,,
"USR0000ACHL","1998-05-14",60.08,30.92,,,
"USR0000ACHL","1998-05-15",66.92,26.96,,,
"USR0000ACHL","1998-05-16",66.02,35.96,,,
"USR0000ACHL","1998-05-17",66.02,30.92,,,
"USR0000ACHL","1998-05-18",75.02,41.00,,,
"USR0000ACHL","1998-05-19",71.96,37.04,,,
"USR0000ACHL","1998-05-20",66.02,37.04,,,
"USR0000ACHL","1998-05-21",69.08,39.02,,,
"USR0000ACHL","1998-05-22",71.96,42.98,,,
"USR0000ACHL","1998-05-23",69.98,30.92,,,
"USR0000ACHL","1998-05-24",80.06,28.94,,,
"USR0000ACHL","1998-05-25",86.00,50.00,,,
"USR0000ACHL","1998-05-26",69.98,44.96,,,
"USR0000ACHL","1998-05-27",82.94,35.96,,,
"USR0000ACHL","1998-05-28",77.00,41.00,,,
"USR0000ACHL","1998-05-29",80.06,50.00,,,
"USR0000ACHL","1998-05-30",82.94,48.92,,,
"USR0000ACHL","1998-05-31",69.08,44.96,,,
"USR0000ACHL","1998-06-01",69.98,44.96,,,
"USR0000ACHL","1998-06-02",64.94,44.06,,,
"USR0000ACHL","1998-06-03",68.00,37.04,,,
"USR0000ACHL","1998-06-04",73.04,39.02,,,
"USR0000ACHL","1998-06-05",69.98,50.00,,,
"USR0000ACHL","1998-06-06",77.00,44.06,,,
"USR0000ACHL","1998-06-07",77.00,39.92,,,
"USR0000ACHL","1998-06-08",80.96,55.04,,,
"USR0000ACHL","1998-06-09",64.94,57.02,,,
"USR0000ACHL","1998-06-10",59.00,48.02,,,
"USR0000ACHL","1998-06-11",69.98,39.92,,,
"USR0000ACHL","1998-06-12",71.96,44.06,,,
"USR0000ACHL","1998-06-13",68.00,42.08,,,
"USR0000ACHL","1998-06-14",77.00,39.92,,,
"USR0000ACHL","1998-06-15",78.98,41.00,,,
"USR0000ACHL","1998-06-16",57.92,42.98,,,
"USR0000ACHL","1998-06-17",62.96,46.94,,,
"USR0000ACHL","1998-06-18",71.96,44.06,,,
"USR0000ACHL","1998-06-19",80.96,37.04,,,
"USR0000ACHL","1998-06-20",75.02,42.08,,,
"USR0000ACHL","1998-06-21",69.08,46.04,,,
"USR0000ACHL","1998-06-22",62.96,44.96,,,
"USR0000ACHL","1998-06-23",73.94,41.00,,,
"USR0000ACHL","1998-06-24",73.94,39.02,,,
"USR0000ACHL","1998-06-25",71.96,44.06,,,
"USR0000ACHL","1998-06-26",64.94,50.00,,,
"USR0000ACHL","1998-06-27",73.04,48.92,,,
"USR0000ACHL","1998-06-28",82.94,44.96,,,
"USR0000ACHL","1998-06-29",89.06,44.96,,,
"USR0000ACHL","1998-06-30",91.04,48.92,,,
"USR0000ACHL","1998-07-01",89.96,53.96,,,
"USR0000ACHL","1998-07-02",78.98,46.04,,,
"USR0000ACHL","1998-07-03",80.06,48.02,,,
"USR0000ACHL","1998-07-04",89.96,48.02,,,
"USR0000ACHL","1998-07-05",89.96,53.96,,,
"USR0000ACHL","1998-07-06",87.98,51.98,,,
"USR0000ACHL","1998-07-07",64.04,53.96,,,
"USR0000ACHL","1998-07-08",75.02,53.06,,,
"USR0000ACHL","1998-07-09",75.92,48.92,,,
"USR0000ACHL","1998-07-10",75.92,50.00,,,
"USR0000ACHL","1998-07-11",78.08,53.96,,,
"USR0000ACHL","1998-07-12",69.98,48.02,,,
"USR0000ACHL","1998-07-13",77.00,44.96,,,
"USR0000ACHL","1998-07-14",78.98,42.98,,,
"USR0000ACHL","1998-07-15",87.98,51.08,,,
"USR0000ACHL","1998-07-16",82.04,51.08,,,
"USR0000ACHL","1998-07-17",77.00,44.06,,,
"USR0000ACHL","1998-07-18",73.94,39.92,,,
"USR0000ACHL","1998-07-19",82.94,37.94,,,
"USR0000ACHL","1998-07-20",86.00,51.98,,,
"USR0000ACHL","1998-07-21",84.92,55.04,,,
"USR0000ACHL","1998-07-22",75.92,55.94,,,
"USR0000ACHL","1998-07-23",73.94,55.94,,,
"USR0000ACHL","1998-07-24",75.02,44.96,,,
"USR0000ACHL","1998-07-25",71.96,39.02,,,
"USR0000ACHL","1998-07-26",71.06,48.02,,,
"USR0000ACHL","1998-07-27",75.02,42.98,,,
"USR0000ACHL","1998-07-28",75.02,35.96,,,
"USR0000ACHL","1998-07-29",77.00,37.94,,,
"USR0000ACHL","1998-07-30",73.94,48.92,,,
"USR0000ACHL","1998-07-31",75.92,53.06,,,
"USR0000ACHL","1998-08-01",82.04,48.02,,,
"USR0000ACHL","1998-08-02",78.08,51.08,,,
"USR0000ACHL","1998-08-03",66.92,51.08,,,
"USR0000ACHL","1998-08-04",66.92,46.94,,,
"USR0000ACHL","1998-08-05",66.92,46.04,,,
"USR0000ACHL","1998-08-06",64.94,44.06,,,
"USR0000ACHL","1998-08-07",55.94,44.06,,,
"USR0000ACHL","1998-08-08",60.98,44.06,,,
"USR0000ACHL","1998-08-09",66.02,35.96,,,
"USR0000ACHL","1998-08-10",64.94,48.02,,,
"USR0000ACHL","1998-08-11",66.02,44.96,,,
"USR0000ACHL","1998-08-12",57.92,41.00,,,
"USR0000ACHL","1998-08-13",69.08,41.00,,,
"USR0000ACHL","1998-08-14",66.92,41.00,,,
"USR0000ACHL","1998-08-15",62.96,48.92,,,
"USR0000ACHL","1998-08-16",59.00,46.94,,,
"USR0000ACHL","1998-08-17",55.94,44.06,,,
"USR0000ACHL","1998-08-18",53.96,42.08,,,
"USR0000ACHL","1998-08-19",64.94,37.04,,,
"USR0000ACHL","1998-08-20",66.92,37.04,,,
"USR0000ACHL","1998-08-21",60.08,46.04,,,
"USR0000ACHL","1998-08-22",60.98,28.04,,,
"USR0000ACHL","1998-08-23",68.00,30.02,,,
"USR0000ACHL","1998-08-24",66.02,46.04,,,
"USR0000ACHL","1998-08-25",66.02,33.98,,,
"USR0000ACHL","1998-08-26",60.08,42.98,,,
"USR0000ACHL","1998-08-27",55.94,46.04,,,
"USR0000ACHL","1998-08-28",64.04,41.00,,,
"USR0000ACHL","1998-08-29",53.06,41.00,,,
"USR0000ACHL","1998-08-30",64.94,30.02,,,
"USR0000ACHL","1998-08-31",62.06,30.02,,,
"USR0000ACHL","1998-09-01",73.04,37.94,,,
"USR0000ACHL","1998-09-02",62.06,33.08,,,
"USR0000ACHL","1998-09-03",64.94,35.06,,,
"USR0000ACHL","1998-09-04",64.04,28.94,,,
"USR0000ACHL","1998-09-05",68.00,28.04,,,
"USR0000ACHL","1998-09-06",66.92,30.02,,,
"USR0000ACHL","1998-09-07",57.92,46.94,,,
"USR0000ACHL","1998-09-08",51.08,44.06,,,
"USR0000ACHL","1998-09-09",62.96,32.00,,,
"USR0000ACHL","1998-09-10",57.02,32.00,,,
"USR0000ACHL","1998-09-11",53.06,30.92,,,
"USR0000ACHL","1998-09-12",48.92,33.08,,,
"USR0000ACHL","1998-09-13",48.92,33.98,,,
"USR0000ACHL","1998-09-14",48.92,21.92,,,
"USR0000ACHL","1998-09-15",51.08,10.94,,,
"USR0000ACHL","1998-09-16",51.98,32.00,,,
"USR0000ACHL","1998-09-17",60.98,37.94,,,
"USR0000ACHL","1998-09-18",55.94,32.00,,,
"USR0000ACHL","1998-09-19",60.08,32.00,,,
"USR0000ACHL","1998-09-20",62.06,41.00,,,
"USR0000ACHL","1998-09-21",55.04,39.92,,,
"USR0000ACHL","1998-09-22",53.06,26.06,,,
"USR0000ACHL","1998-09-23",57.92,28.04,,,
"USR0000ACHL","1998-09-24",51.98,26.96,,,
"USR0000ACHL","1998-09-25",51.98,30.92,,,
"USR0000ACHL","1998-09-26",50.00,33.08,,,
"USR0000ACHL","1998-09-27",46.04,30.02,,,
"USR0000ACHL","1998-09-28",44.06,26.06,,,
"USR0000ACHL","1998-09-29",48.02,15.98,,,
"USR0000ACHL","1998-09-30",42.08,8.06,,,
"USR0000ACHL","1998-10-01",39.92,6.98,,,
"USR0000ACHL","1998-10-02",37.04,1.94,,,
"USR0000ACHL","1998-10-03",37.94,1.04,,,
"USR0000ACHL","1998-10-04",37.94,15.08,,,
"USR0000ACHL","1998-10-05",35.96,24.08,,,
"USR0000ACHL","1998-10-06",33.98,12.02,,,
"USR0000ACHL","1998-10-07",33.98,3.02,,,
"USR0000ACHL","1998-10-08",32.00,-2.02,,,
"USR0000ACHL","1998-10-09",35.96,-2.92,,,
"USR0000ACHL","1998-10-10",33.98,-2.02,,,
"USR0000ACHL","1998-10-11",42.08,-0.94,,,
"USR0000ACHL","1998-10-12",46.94,10.94,,,
"USR0000ACHL","1998-10-13",33.08,5.00,,,
"USR0000ACHL","1998-10-14",30.92,1.04,,,
"USR0000ACHL","1998-10-15",35.96,15.08,,,
"USR0000ACHL","1998-10-16",28.94,24.08,,,
"USR0000ACHL","1998-10-17",30.92,21.02,,,
"USR0000ACHL","1998-10-18",26.06,15.98,,,
"USR0000ACHL","1998-10-19",28.94,19.94,,,
"USR0000ACHL","1998-10-20",26.96,19.94,,,
"USR0000ACHL","1998-10-21",24.08,6.98,,,
"USR0000ACHL","1998-10-22",24.98,3.02,,,
"USR0000ACHL","1998-10-23",23.00,5.00,,,
"USR0000ACHL","1998-10-24",33.98,23.00,,,
"USR0000ACHL","1998-10-25",32.00,15.08,,,
"USR0000ACHL","1998-10-26",33.08,8.96,,,
"USR0000ACHL","1998-10-27",28.04,6.98,,,
"USR0000ACHL","1998-10-28",21.02,1.94,,,
"USR0000ACHL","1998-10-29",15.98,-4.00,,,
"USR0000ACHL","1998-10-30",6.08,-13.00,,,
"USR0000ACHL","1998-10-31",10.94,-5.98,,,
"USR0000ACHL","1998-11-01",10.04,-11.02,,,
"USR0000ACHL","1998-11-02",15.08,-7.06,,,
"USR0000ACHL","1998-11-03",15.08,-9.94,,,
"USR0000ACHL","1998-11-04",15.98,-5.98,,,
"USR0000ACHL","1998-11-05",19.04,-9.94,,,
"USR0000ACHL","1998-11-06",14.00,-2.02,,,
"USR0000ACHL","1998-11-07",15.98,10.94,,,
"USR0000ACHL","1998-11-08",17.06,-9.04,,,
"USR0000ACHL","1998-11-09",1.04,-16.06,,,
"USR0000ACHL","1998-11-10",6.08,-27.04,,,
"USR0000ACHL","1998-11-11",-11.92,-27.94,,,
"USR0000ACHL","1998-11-12",-9.94,-29.02,,,
"USR0000ACHL","1998-11-13",-4.00,-18.94,,,
"USR0000ACHL","1998-11-14",-16.06,-29.92,,,
"USR0000ACHL","1998-11-15",-23.08,-34.06,,,
"USR0000ACHL","1998-11-16",-20.92,-31.00,,,
"USR0000ACHL","1998-11-17",-7.96,-29.92,,,
"USR0000ACHL","1998-11-18",-2.02,-23.08,,,
"USR0000ACHL","1998-11-19",5.00,-14.98,,,
"USR0000ACHL","1998-11-20",8.96,-7.96,,,
"USR0000ACHL","1998-11-21",10.04,3.92,,,
"USR0000ACHL","1998-11-22",6.98,-0.04,,,
"USR0000ACHL","1998-11-23",3.02,-0.04,,,
"USR0000ACHL","1998-11-24",5.00,1.94,,,
"USR0000ACHL","1998-11-25",1.94,-23.08,,,
"USR0000ACHL","1998-11-26",1.94,-25.06,,,
"USR0000ACHL","1998-11-27",1.94,-14.08,,,
"USR0000ACHL","1998-11-28",1.04,-11.02,,,
"USR0000ACHL","1998-11-29",-5.98,-20.92,,,
"USR0000ACHL","1998-11-30",-11.92,-20.02,,,
"USR0000ACHL","1998-12-01",-18.04,-23.98,,,
"USR0000ACHL","1998-12-02",-22.00,-27.04,,,
"USR0000ACHL","1998-12-03",-11.92,-29.02,,,
"USR0000ACHL","1998-12-04",6.08,-9.04,,,
"USR0000ACHL","1998-12-05",12.92,-0.94,,,
"USR0000ACHL","1998-12-06",8.96,-29.02,,,
"USR0000ACHL","1998-12-07",-18.94,-32.08,,,
"USR0000ACHL","1998-12-08",-7.06,-18.94,,,
"USR0000ACHL","1998-12-09",1.04,-11.02,,,
"USR0000ACHL","1998-12-10",1.94,-16.96,,,
"USR0000ACHL","1998-12-11",-4.00,-29.92,,,
"USR0000ACHL","1998-12-12",-0.04,-9.04,,,
"USR0000ACHL","1998-12-13",1.04,-31.00,,,
"USR0000ACHL","1998-12-14",-20.92,-32.08,,,
"USR0000ACHL","1998-12-15",-9.94,-32.08,,,
"USR0000ACHL","1998-12-16",-5.98,-23.98,,,
"USR0000ACHL","1998-12-17",-23.98,-38.02,,,
"USR0000ACHL","1998-12-18",-14.98,-36.04,,,
"USR0000ACHL","1998-12-19",-0.94,-14.08,,,
"USR0000ACHL","1998-12-20",6.08,-0.04,,,
"USR0000ACHL","1998-12-21",8.96,3.92,,,
"USR0000ACHL","1998-12-22",8.06,-7.06,,,
"USR0000ACHL","1998-12-23",3.92,-16.06,,,
"USR0000ACHL","1998-12-24",-20.02,-23.98,,,
"USR0000ACHL","1998-12-25",-11.92,-20.92,,,
"USR0000ACHL","1998-12-26",1.04,-23.98,,,
"USR0000ACHL","1998-12-27",-0.04,-11.02,,,